Flag for Brazil Weather past 2 weeks in Porto Alegre, Rio Grande do Sul, Brazil

Now
75 °F

Clear.


Feels Like: 75 °F
Forecast: 70 / 90 °F
Wind: 3 mph from Southeast

Location: Porto Alegre Aero-Porto

Current Time: Mar 3, 2015 at 2:38:43 AM

Latest Report: Mar 3, 2015 at 1:00 AM


Visibility: 10 mi

Pressure: 29.92 "Hg

Humidity: 89%

Dew point: 72 °F

Location of Porto AlegreLocation

Historic Weather in Porto Alegre — Graph

°F

Porto Alegre temperature yesterday

Maximum temperature yesterday: 90 °F (at 5:00 PM)
Minimum temperature yesterday: 70 °F (at 4:00 AM)
Average temperature yesterday: 79 °F

Past Weeks' High & Low Weather Summary

 TemperatureHumidityPressure
High91 °F (Feb 19, 3:00 PM)100% (Feb 17, 4:00 AM)30.12 "Hg (Feb 17, 4:00 AM)
Low32 °F (Feb 24, 8:00 AM)40% (Mar 1, 3:00 PM)29.59 "Hg (Feb 19, 4:00 PM)
Average76 °F80%29.93 "Hg
* Reported Feb 16 2:00 AM — Mar 3 1:00 AM, Porto Alegre, Weather by CustomWeather, © 2015

Note: Actual official high and low records may vary slightly from our data, if they occured in-between our weather recording intervals... More about our weather records

Advertising

Porto Alegre weather history for previous 24 hours

 ConditionsComfort  
Time TempWeatherWind HumidityBarometerVisibility
1:00 AM
Tue, Mar 3
75 °FClear.3 mph89%29.92 "Hg10 mi
12:00 AM75 °FClear.6 mph89%29.92 "Hg10 mi
11:00 PM
Mon, Mar 2
77 °FClear.5 mph83%29.92 "Hg10 mi
10:00 PM77 °FClear.6 mph83%29.92 "Hg10 mi
9:00 PM81 °FClear.7 mph74%29.92 "Hg10 mi
8:00 PM81 °FClear.8 mph70%29.89 "Hg10 mi
7:00 PM84 °FClear.3 mph58%29.89 "Hg10 mi
6:00 PM88 °FClear.6 mph46%29.89 "Hg10 mi
5:00 PM90 °FSunny.2 mph46%29.89 "Hg10 mi
4:00 PM88 °FSunny.8 mph52%29.89 "Hg10 mi
3:00 PM88 °FSunny.5 mph46%29.92 "Hg10 mi
2:00 PM86 °FSunny.8 mph55%29.92 "Hg10 mi
1:00 PM84 °FPassing clouds.5 mph55%29.95 "HgN/A
12:00 PM84 °FSunny.9 mph51%29.98 "Hg10 mi
11:00 AM82 °FSunny.10 mph51%30.01 "Hg10 mi
10:00 AM81 °FPassing clouds.7 mph54%30.01 "HgN/A
9:00 AM77 °FSunny.3 mph61%30.01 "Hg10 mi
8:00 AM73 °FSunny.5 mph78%30.01 "Hg10 mi
7:00 AM70 °FSunny.6 mph88%30.01 "Hg10 mi
6:00 AM70 °FSunny.3 mph88%29.98 "Hg10 mi
5:00 AM70 °FClear.5 mph88%29.98 "Hg10 mi
4:00 AM70 °FClear.5 mph88%29.95 "Hg10 mi
3:00 AM72 °FClear.8 mph83%29.95 "Hg10 mi
2:00 AM72 °FClear.8 mph83%29.95 "Hg10 mi
Weather by CustomWeather, © 2015

See weather overviewHow to use our weather pages